TimeEST,TemperatureF,Dew PointF,Humidity,Sea Level PressureIn,VisibilityMPH,Wind Direction,Wind SpeedMPH,Gust SpeedMPH,PrecipitationIn,Events,Conditions,WindDirDegrees,DateUTC
12:53 AM,43.0,34.0,71,30.25,10.0,NNE,8.1,-,N/A,,Clear,30,2012-02-13 05:53:00
1:53 AM,43.0,33.1,68,30.23,10.0,NNE,5.8,-,N/A,,Clear,30,2012-02-13 06:53:00
2:53 AM,42.1,30.9,65,30.21,10.0,NNE,12.7,18.4,N/A,,Clear,30,2012-02-13 07:53:00
3:53 AM,42.1,30.0,62,30.20,10.0,NE,9.2,-,N/A,,Clear,40,2012-02-13 08:53:00
4:53 AM,42.1,27.0,55,30.20,10.0,NNE,10.4,-,N/A,,Clear,30,2012-02-13 09:53:00
5:53 AM,42.1,28.9,60,30.20,10.0,NE,9.2,-,N/A,,Clear,40,2012-02-13 10:53:00
6:53 AM,43.0,32.0,65,30.20,10.0,NE,10.4,-,N/A,,Clear,40,2012-02-13 11:53:00
7:53 AM,45.0,34.0,65,30.24,10.0,NNE,9.2,-,N/A,,Clear,30,2012-02-13 12:53:00
8:53 AM,50.0,35.1,57,30.23,10.0,NE,12.7,-,N/A,,Clear,40,2012-02-13 13:53:00
9:53 AM,55.9,39.9,55,30.23,10.0,ENE,12.7,-,N/A,,Clear,60,2012-02-13 14:53:00
10:53 AM,61.0,43.0,52,30.22,10.0,ENE,13.8,-,N/A,,Clear,70,2012-02-13 15:53:00
11:53 AM,66.0,46.0,48,30.20,10.0,East,11.5,-,N/A,,Clear,80,2012-02-13 16:53:00
12:53 PM,69.1,46.9,45,30.16,10.0,ESE,8.1,-,N/A,,Clear,110,2012-02-13 17:53:00
1:53 PM,70.0,46.9,44,30.14,10.0,ESE,5.8,-,N/A,,Mostly Cloudy,110,2012-02-13 18:53:00
2:53 PM,70.0,46.9,44,30.12,10.0,SSE,6.9,-,N/A,,Mostly Cloudy,150,2012-02-13 19:53:00
3:53 PM,69.1,48.0,47,30.12,10.0,WSW,9.2,-,N/A,,Scattered Clouds,250,2012-02-13 20:53:00
4:53 PM,68.0,48.9,50,30.11,10.0,WSW,5.8,-,N/A,,Scattered Clouds,240,2012-02-13 21:53:00
5:53 PM,66.0,50.0,56,30.11,10.0,WNW,5.8,-,N/A,,Partly Cloudy,300,2012-02-13 22:53:00
6:53 PM,63.0,52.0,67,30.12,10.0,Calm,Calm,-,N/A,,Mostly Cloudy,0,2012-02-13 23:53:00
7:53 PM,63.0,51.1,65,30.12,10.0,Calm,Calm,-,N/A,,Scattered Clouds,0,2012-02-14 00:53:00
8:53 PM,61.0,51.1,70,30.14,10.0,SE,3.5,-,N/A,,Mostly Cloudy,140,2012-02-14 01:53:00
9:53 PM,61.0,50.0,67,30.15,10.0,Calm,Calm,-,N/A,,Clear,0,2012-02-14 02:53:00
10:53 PM,60.1,50.0,69,30.14,10.0,East,4.6,-,N/A,,Partly Cloudy,90,2012-02-14 03:53:00
11:53 PM,59.0,50.0,72,30.14,10.0,East,3.5,-,N/A,,Clear,100,2012-02-14 04:53:00